Regional Weather Roundup
Issued by NWS Wakefield, VA

Home | Current Version | Previous Version | Text Only | Print | Product List | Glossary Off
Versions: 1 2 3 4 5 6 7 8 9 10 11 12 13 14 15 16 17 18 19 20 21 22 23 24 25 26 27 28 29 30 31 32 33 34 35 36 37 38 39 40 41 42 43 44 45 46 47 48 49 50

000
ASUS41 KAKQ 192110
RWRAKQ

REGIONAL WEATHER ROUNDUP
NATIONAL WEATHER SERVICE WAKEFIELD VA
400 PM EST FRI DEC 19 2014

Note: "fair" indicates few or no clouds below 12,000 feet with no
significant weather and/or obstructions to visibility. * = Denotes
station may not report precipitation (e.g., rain,snow,etc.),
thunder or fog.

VAZ042-051-052>054-056-192200-
NORTHERN VIRGINIA

CITY           SKY/WX    TMP DP  RH WIND       PRES   REMARKS
WASH NATIONAL  PTCLDY    42  22  44 NW12      30.16S
DULLES         PTCLDY    37  22  54 NW14      30.16R
FORT BELVOIR   CLEAR     40  22  49 NW13      30.17R
QUANTICO       PTCLDY    39  23  52 NW12      30.19R
FREDERICKSBRG* CLEAR     41  26  53 NW6       30.17R
STAFFORD*      CLEAR     39  23  52 N12       30.21R
WARRENTON      PTCLDY    40  29  65 NW9       30.16R
CULPEPER*      CLEAR     39  25  56 N9        30.18R
MANASSAS*      PTCLDY    39  25  56 NW14      30.17R
LEESBURG*      CLEAR     37  28  70 N14G20    30.17R
WINCHESTER     CLEAR     36  19  51 W16G24    30.16S
FRONT ROYAL*   MOCLDY    34  23  64 NW6       30.17R
LURAY*         PTCLDY    37  27  65 N5        30.16S
$$

VAZ048-049-060>072-079>083-192200-
CENTRAL AND SOUTH CENTRAL VIRGINIA

CITY           SKY/WX    TMP DP  RH WIND       PRES   REMARKS
RICHMOND       MOCLDY    45  24  43 NW6       30.15R
CHESTERFIELD*  CLEAR     45  21  39 NW5       30.16R
PETERSBURG*    CLEAR     46  25  42 NW5       30.16R
HANOVER        CLEAR     43  25  49 NW6       30.17R
TAPPAHANNOCK*  CLEAR     42  21  43 NW6       30.17R
QUINTON*       CLEAR     43  26  52 NW6       30.16R
CHARLOTTSVILLE CLEAR     42  23  46 VRB5      30.13R
GORDONSVILLE*  CLEAR     41  25  52 NE5       30.14R
ORANGE*        CLEAR     41  27  56 N6        30.17R
LOUISA*        CLEAR     43  27  52 N3        30.13S
BUMPASS*       CLEAR     42  25  51 CALM      30.15S
FARMVILLE*     CLEAR     51  25  36 CALM      30.12S
CREWE*         PTCLDY    46  24  41 NW5       30.13S
FORT PICKETT*  PTCLDY    45  25  46 CALM      30.14S
CHASE CITY*    PTCLDY    47  28  47 CALM      30.13S
CLARKSVILLE*   PTCLDY    46  27  46 CALM      30.13S
SOUTH HILL*    PTCLDY    45  27  49 CALM      30.19S
LAWRENCEVILLE* PTCLDY    45  27  50 CALM      30.14S
EMPORIA*       PTCLDY    43  28  56 W3        30.17R
$$

VAZ088>098-192200-
SOUTHEAST VIRGINIA

CITY           SKY/WX    TMP DP  RH WIND       PRES   REMARKS
NORFOLK        CLEAR     42  29  59 N7        30.15R
VIRGINIA BEACH PTCLDY    42  29  59 N9        30.15R
NORFOLK NAVAL  MOCLDY    45  27  49 N7        30.17R
WEST POINT*    CLEAR     45  23  42 NW6       30.17R
SALUDA*        FAIR      40  26  56 NW7       30.15R
NEWPORT NEWS   CLEAR     47  25  42 VRB3      30.15R
LANGLEY AFB    CLEAR     43  26  49 N8        30.16R
FORT EUSTIS    CLEAR     43  26  51 W7        30.14R
WILLIAMSBURG*  CLEAR     48  28  46 NW10      30.16R
HR EXEC AP*    CLEAR     43  27  52 N3        30.18R
FRANKLIN*      CLEAR     45  27  49 NW3       30.16R
WAKEFIELD      CLEAR     45  25  45 N5        30.16R
$$

VAZ020-022-025-037-045-192200-
WEST CENTRAL AND SOUTHWEST VIRGINIA

CITY           SKY/WX    TMP DP  RH WIND       PRES   REMARKS
STAUNTON*      CLEAR     38  23  55 NE10      30.15R
WAYNESBORO*    CLEAR     37  24  58 N6        30.12R
HOT SPRINGS VA PTCLDY    31  20  63 W13       30.00F WCI  22
LYNCHBURG      PTCLDY    44  24  45 CALM      30.12S
DANVILLE       PTCLDY    49  27  42 NE3       30.13S
SOUTH BOSTON*  PTCLDY    47  24  40 CALM      30.13S
MARTINSVILLE   MOSUNNY   49  26  39 N7        30.14R
ROANOKE        CLOUDY    45  24  43 NW6       30.14R
BLACKSBURG     PTSUNNY   37  24  59 W7        30.13S
DUBLIN*        PTSUNNY   41  28  58 CALM      30.11S
MARION*        CLOUDY    41  23  48 W9        30.12S
HILLSVILLE*    PTSUNNY   40  24  53 NW10      30.09R
RICHLANDS*     CLOUDY    37  21  54 CALM      30.11F
WISE*          PTSUNNY   36  27  69 NE3       30.13S
ABINGDON*      PTSUNNY   42  24  49 CALM      30.13S
$$

MDZ021>025-VAZ099-100-192200-
SOUTHERN MARYLAND AND THE DELMARVA PENINSULA

CITY           SKY/WX    TMP DP  RH WIND       PRES   REMARKS
PATUXENT RIVER MOCLDY    39  24  55 NW10      30.16R
BAY BRIDGE APT   N/A     39  25  56 NW9       30.15R
LEONARDTOWN    CLOUDY    37  23  56 W10       30.17R
DOVER          CLEAR     40  24  54 NW8       30.10R
GEORGETOWN     CLOUDY    39  24  55 VRB7      30.12R
EASTON         PTCLDY    39  27  60 NW12      30.18R
CAMBRIDGE      CLOUDY    39  27  60 NW10      30.14S
SALISBURY      CLOUDY    40  25  55 NW12      30.13R
OCEAN CITY     CLOUDY    38  25  59 NW7G16    30.12R
WALLOPS ISLAND CLOUDY    37  25  61 N13G18    30.15R
ACCOMACK*      MOCLDY    37  27  65 N9G21     30.15R
$$

NCZ012>017-030>032-192200-
NORTH CENTRAL AND EASTERN NORTH CAROLINA

CITY           SKY/WX    TMP DP  RH WIND       PRES   REMARKS
ROANOKE RAPIDS PTCLDY    45  28  53 CALM      30.15S
RALEIGH        MOCLDY    50  25  37 N5        30.13S
ELIZABETH CITY CLEAR     49  28  44 N3        30.15R
AHOSKIE*       PTCLDY    44  28  52 CALM      30.16R
EDENTON*       CLEAR     47  30  53 N6        30.15R
CURRITUCK*     CLEAR     44  27  50 N6        30.15R
KILL DEVIL HLS CLEAR     42  32  68 N3        30.13R
MANTEO         CLEAR     42  32  67 N7        30.15R
CAPE HATTERAS  CLEAR     46  34  62 NE6       30.13R
TARBORO*       PTCLDY    48  28  46 NW5       30.16R
GOLDSBORO      PTCLDY    51  33  51 CALM      30.12R
WASHINGTON     PTCLDY    47  29  48 N3        30.15R
GREENVILLE     PTCLDY    48  30  49 N5        30.16R
NEW BERN       CLEAR     53  30  41 N6        30.15R
WILMINGTON     SUNNY     58  27  30 N5        30.11S
$$

VAZ048-192200-
ELSEWHERE

CITY           SKY/WX    TMP DP  RH WIND       PRES   REMARKS
HARRISBURG PA  PTCLDY    37  20  50 NW13      30.13R
BALTIMORE      PTCLDY    39  23  52 NW9       30.14R
ANNAPOLIS      CLEAR     40  24  53 NW9       30.14R
ANDREWS AFB    CLEAR     38  23  53 NW14      30.14R
PHILADELPHIA   PTCLDY    41  21  44 NW16G23   30.10R
HENDERSON NC   FAIR      46  24  42 N3        30.13S
GREENSBORO     PTSUNNY   51  22  31 NW7       30.10S
ROCKY MOUNT    PTCLDY    49  27  42 N3        30.15R
$$

VAZ100-192200-
MARINE

STATION/POSITION TIME  TEMP    WIND        PRES    WAVE   SWELL
                       AIR SEA DIR/SP/G            HT/PER HT/PER
                 (UTC) (F)     (DEG/KT/KT) (MB)    (FT/S) (FT/S)
CAPE MAY NJ      2100   39 42  310/ 17/ 20 1018.9R
LEWES DE         2100   40 42  310/ 16/ 19 1019.5R
15NM E FENWICK I 2100   39 47              1019.1R   3/ 5
OCEAN-CITY-INLET 2100   38 44  320/ 10/ 14 1019.6R
WACHAPREAGUE VA  2100   39 43  330/  7/ 12 1020.9R
THOMAS POINT MD  2100   39 42  320/ 11/ 13 1021.9R
GOOSES REEF MD   2100   39     VRB 14/ 19  1020.1R
COVE POINT MD    2100   38     330/ 11/ 16 1020.9R
SOLOMONS ISLAND  2100      43                N/A
BISHOPS HEAD MD  2100   38 39  310/ 12/ 13 1021.0R
PINEY POINT MD   2000          340/ 14/ 15   N/A
POTOMAC MD       2100   39     320/ 14/ 17 1020.4R
CAMBRIDGE MD     2100   38 40  310/ 13/ 19 1020.5R
LEWISETTA VA     2100   39 43  310/ 12/ 14 1021.4R
RAPPAHANNOCK LGT 2100          340/ 18/ 22 1021.2R
STINGRAY PT      2100   41     340/ 10/ 14 1021.4R
YORK RVR RNG VA  2100   42      20/  7/  8 1020.4R
YORKTOWN VA      2100   43 45  320/  9/ 10 1020.7R
JAMESTOWN VA     2100   44     320/  4/  6   N/A
DOMINION TERM VA 2100   43     320/  7/ 14 1020.9R
KIPTOPEKE VA     2100      50   20/  8/ 12   N/A
CHES BAY BRIDGE  2100   40 46  360/  9/ 10 1020.6R
CAPE HENRY VA    2100   40     350/ 10/ 12 1019.7R
CHESAPEAKE LGHT  2000   40     350/ 14/ 17 1020.8R
WILLOUBY STN VA  2100   42      50/  4/  5 1021.5R
S CRANEY ISL VA  2100          330/  4/  7 1020.9R
CAPE HENRY BUOY  2100      48                N/A     3/ 5
1ST LANDING BUOY 2100   41     360/ 10/ 12 1020.5R
CAPE CHARLES BUO 2100      48                N/A     3/ 4   2/11
64NM E OF VA BCH 2100   42 54  330/ 16/ 19 1019.6R   4/ 5
DUCK PIER NC     2100   41 47   10/  8/ 12 1019.8R
44100 DUCK FRF   2100      51                N/A     4/ 5
44056 DUCK FRF   2100      48                N/A     4/ 5
OREGON INLET NC  2100   43 50  340/  7/ 11 1020.6R
HATTERAS NC      2100   46 53   20/  6/ 10 1020.7R
DIAMOND SHLS NC  2100   48                 1020.3R   3/ 8
CAPE LOOKOUT NC  2000   49      50/  9/ 11 1019.5R
$$


USA.gov is the U.S. government's official web portal to all federal, state and local government web resources and services.